Grub im Wienerwald
Wetterdaten: aktuell Mittwoch, 23.01.2019 21:30
Datum Zeit Temp. A. Feuchte A. Luftdruck Regen Wind Richtung Richtung Sonnenschein UV Solar Taupunkt Windchill Windben
23.01.2019 21:30 -4,8 C 95 % 1002,4 hPa 0,0 l/m 0,4 km/h S-SO 166 0 min 0,0 UV-I 0 W/m -5,5 C -4,8 C 3,2 km/h
23.01.2019 21:27 -4,8 C 95 % 1002,4 hPa 0,0 l/m 1,2 km/h S-SO 166 0 min 0,0 UV-I 0 W/m -5,5 C -4,8 C 6,4 km/h
23.01.2019 21:24 -4,8 C 95 % 1002,4 hPa 0,0 l/m 1,9 km/h S-SO 166 0 min 0,0 UV-I 0 W/m -5,5 C -4,8 C 6,4 km/h
23.01.2019 21:21 -4,8 C 95 % 1002,4 hPa 0,0 l/m 1,5 km/h S-SO 166 0 min 0,0 UV-I 0 W/m -5,5 C -4,8 C 6,4 km/h
23.01.2019 21:18 -4,8 C 95 % 1002,4 hPa 0,0 l/m 3,1 km/h S-SO 166 0 min 0,0 UV-I 0 W/m -5,5 C -4,8 C 9,7 km/h
23.01.2019 21:15 -4,8 C 95 % 1002,5 hPa 0,0 l/m 1,3 km/h S-SO 166 0 min 0,0 UV-I 0 W/m -5,5 C -4,8 C 8,0 km/h
23.01.2019 21:12 -4,8 C 95 % 1002,3 hPa 0,0 l/m 3,7 km/h S-SO 166 0 min 0,0 UV-I 0 W/m -5,5 C -4,8 C 9,7 km/h
23.01.2019 21:09 -4,8 C 95 % 1002,4 hPa 0,0 l/m 1,9 km/h S-SO 166 0 min 0,0 UV-I 0 W/m -5,5 C -4,8 C 6,4 km/h
23.01.2019 21:06 -4,8 C 95 % 1002,4 hPa 0,0 l/m 0,0 km/h S-SO 166 0 min 0,0 UV-I 0 W/m -5,5 C -4,8 C 0,0 km/h
23.01.2019 21:03 -4,8 C 95 % 1002,4 hPa 0,0 l/m 0,6 km/h S-SO 166 0 min 0,0 UV-I 0 W/m -5,5 C -4,8 C 3,2 km/h
23.01.2019 21:00 -4,8 C 95 % 1002,4 hPa 0,0 l/m 0,5 km/h S-SO 166 0 min 0,0 UV-I 0 W/m -5,5 C -4,8 C 3,2 km/h
23.01.2019 20:57 -4,8 C 95 % 1002,4 hPa 0,0 l/m 0,2 km/h S-SO 166 0 min 0,0 UV-I 0 W/m -5,5 C -4,8 C 3,2 km/h
23.01.2019 20:54 -4,8 C 95 % 1002,4 hPa 0,0 l/m 1,5 km/h S-SO 166 0 min 0,0 UV-I 0 W/m -5,5 C -4,8 C 3,2 km/h
23.01.2019 20:51 -4,8 C 95 % 1002,4 hPa 0,0 l/m 4,9 km/h S-SO 167 0 min 0,0 UV-I 0 W/m -5,5 C -4,8 C 9,7 km/h
23.01.2019 20:48 -4,8 C 95 % 1002,4 hPa 0,0 l/m 2,9 km/h S-SO 167 0 min 0,0 UV-I 0 W/m -5,5 C -4,8 C 6,4 km/h
23.01.2019 20:45 -4,8 C 94 % 1002,4 hPa 0,0 l/m 3,5 km/h S-SO 167 0 min 0,0 UV-I 0 W/m -5,6 C -4,8 C 8,0 km/h
23.01.2019 20:42 -4,8 C 94 % 1002,3 hPa 0,0 l/m 4,6 km/h S-SO 167 0 min 0,0 UV-I 0 W/m -5,6 C -4,8 C 8,0 km/h
23.01.2019 20:39 -4,9 C 94 % 1002,2 hPa 0,0 l/m 1,5 km/h S-SO 167 0 min 0,0 UV-I 0 W/m -5,7 C -4,9 C 6,4 km/h
23.01.2019 20:36 -4,9 C 94 % 1002,2 hPa 0,0 l/m 2,7 km/h S-SO 167 0 min 0,0 UV-I 0 W/m -5,7 C -4,9 C 8,0 km/h
23.01.2019 20:33 -4,9 C 95 % 1002,2 hPa 0,0 l/m 0,5 km/h S-SO 167 0 min 0,0 UV-I 0 W/m -5,6 C -4,9 C 3,2 km/h
23.01.2019 20:30 -4,8 C 95 % 1002,2 hPa 0,0 l/m 0,1 km/h S-SO 167 0 min 0,0 UV-I 0 W/m -5,5 C -4,8 C 1,6 km/h
23.01.2019 20:27 -4,9 C 95 % 1002,3 hPa 0,0 l/m 1,3 km/h S-SO 167 0 min 0,0 UV-I 0 W/m -5,6 C -4,9 C 3,2 km/h
23.01.2019 20:24 -4,9 C 95 % 1002,3 hPa 0,0 l/m 1,8 km/h S-SO 167 0 min 0,0 UV-I 0 W/m -5,6 C -4,9 C 6,4 km/h
23.01.2019 20:21 -4,9 C 94 % 1002,2 hPa 0,0 l/m 3,7 km/h S-SO 167 0 min 0,0 UV-I 0 W/m -5,7 C -4,9 C 8,0 km/h
23.01.2019 20:18 -4,9 C 94 % 1002,2 hPa 0,0 l/m 3,3 km/h S-SO 167 0 min 0,0 UV-I 0 W/m -5,7 C -4,9 C 9,7 km/h
23.01.2019 20:15 -4,9 C 94 % 1002,2 hPa 0,0 l/m 1,4 km/h S 169 0 min 0,0 UV-I 0 W/m -5,7 C -4,9 C 6,4 km/h
23.01.2019 20:12 -4,9 C 94 % 1002,2 hPa 0,0 l/m 1,7 km/h S 169 0 min 0,0 UV-I 0 W/m -5,7 C -4,9 C 6,4 km/h
23.01.2019 20:09 -4,9 C 94 % 1002,2 hPa 0,0 l/m 1,9 km/h S 169 0 min 0,0 UV-I 0 W/m -5,7 C -4,9 C 8,0 km/h
23.01.2019 20:06 -4,9 C 94 % 1002,1 hPa 0,0 l/m 2,1 km/h S 169 0 min 0,0 UV-I 0 W/m -5,7 C -4,9 C 8,0 km/h
23.01.2019 20:03 -4,9 C 94 % 1002,1 hPa 0,0 l/m 0,4 km/h S 169 0 min 0,0 UV-I 0 W/m -5,7 C -4,9 C 3,2 km/h
23.01.2019 20:00 -4,9 C 94 % 1002,1 hPa 0,0 l/m 2,0 km/h S 169 0 min 0,0 UV-I 0 W/m -5,7 C -4,9 C 8,0 km/h
23.01.2019 19:57 -4,9 C 94 % 1002,1 hPa 0,0 l/m 0,2 km/h S 169 0 min 0,0 UV-I 0 W/m -5,7 C -4,9 C 1,6 km/h
23.01.2019 19:54 -4,9 C 94 % 1002,1 hPa 0,0 l/m 2,9 km/h S 169 0 min 0,0 UV-I 0 W/m -5,7 C -4,9 C 9,7 km/h
23.01.2019 19:51 -4,9 C 94 % 1002,0 hPa 0,0 l/m 0,6 km/h S 169 0 min 0,0 UV-I 0 W/m -5,7 C -4,9 C 3,2 km/h
23.01.2019 19:48 -4,9 C 94 % 1002,0 hPa 0,0 l/m 0,0 km/h S 169 0 min 0,0 UV-I 0 W/m -5,7 C -4,9 C 0,0 km/h
23.01.2019 19:45 -4,9 C 94 % 1002,0 hPa 0,0 l/m 0,0 km/h S 169 0 min 0,0 UV-I 0 W/m -5,7 C -4,9 C 1,6 km/h
23.01.2019 19:42 -4,9 C 94 % 1002,0 hPa 0,0 l/m 1,1 km/h S 169 0 min 0,0 UV-I 0 W/m -5,7 C -4,9 C 3,2 km/h
23.01.2019 19:39 -4,9 C 94 % 1001,9 hPa 0,0 l/m 1,6 km/h S 169 0 min 0,0 UV-I 0 W/m -5,7 C -4,9 C 8,0 km/h
23.01.2019 19:36 -4,9 C 94 % 1001,9 hPa 0,0 l/m 0,9 km/h S 169 0 min 0,0 UV-I 0 W/m -5,7 C -4,9 C 6,4 km/h
23.01.2019 19:33 -4,9 C 94 % 1001,9 hPa 0,0 l/m 1,4 km/h S 169 0 min 0,0 UV-I 0 W/m -5,7 C -4,9 C 6,4 km/h
23.01.2019 19:30 -4,9 C 94 % 1001,9 hPa 0,0 l/m 2,3 km/h S 169 0 min 0,0 UV-I 0 W/m -5,7 C -4,9 C 8,0 km/h
23.01.2019 19:27 -4,9 C 94 % 1001,8 hPa 0,0 l/m 0,1 km/h S 170 0 min 0,0 UV-I 0 W/m -5,7 C -4,9 C 1,6 km/h
23.01.2019 19:24 -4,9 C 94 % 1001,8 hPa 0,0 l/m 0,7 km/h S 170 0 min 0,0 UV-I 0 W/m -5,7 C -4,9 C 3,2 km/h
23.01.2019 19:21 -4,9 C 94 % 1001,8 hPa 0,0 l/m 0,7 km/h S 170 0 min 0,0 UV-I 0 W/m -5,7 C -4,9 C 3,2 km/h
23.01.2019 19:18 -4,9 C 94 % 1001,8 hPa 0,0 l/m 0,2 km/h S 170 0 min 0,0 UV-I 0 W/m -5,7 C -4,9 C 3,2 km/h
23.01.2019 19:15 -4,9 C 94 % 1001,8 hPa 0,0 l/m 0,6 km/h S 170 0 min 0,0 UV-I 0 W/m -5,7 C -4,9 C 3,2 km/h
23.01.2019 19:12 -4,9 C 94 % 1001,8 hPa 0,0 l/m 1,0 km/h S 170 0 min 0,0 UV-I 0 W/m -5,7 C -4,9 C 6,4 km/h
23.01.2019 19:09 -4,9 C 94 % 1001,8 hPa 0,0 l/m 0,2 km/h S 170 0 min 0,0 UV-I 0 W/m -5,7 C -4,9 C 1,6 km/h
23.01.2019 19:06 -4,9 C 94 % 1001,8 hPa 0,0 l/m 0,0 km/h S 170 0 min 0,0 UV-I 0 W/m -5,7 C -4,9 C 0,0 km/h
23.01.2019 19:03 -4,9 C 94 % 1001,7 hPa 0,0 l/m 0,8 km/h S 170 0 min 0,0 UV-I 0 W/m -5,7 C -4,9 C 3,2 km/h
23.01.2019 19:00 -4,9 C 94 % 1001,8 hPa 0,0 l/m 0,1 km/h S 170 0 min 0,0 UV-I 0 W/m -5,7 C -4,9 C 3,2 km/h
23.01.2019 18:57 -4,9 C 94 % 1001,7 hPa 0,0 l/m 0,7 km/h S 170 0 min 0,0 UV-I 0 W/m -5,7 C -4,9 C 6,4 km/h
23.01.2019 18:54 -4,9 C 94 % 1001,7 hPa 0,0 l/m 1,1 km/h S 170 0 min 0,0 UV-I 0 W/m -5,7 C -4,9 C 6,4 km/h
23.01.2019 18:51 -4,9 C 94 % 1001,7 hPa 0,0 l/m 0,1 km/h S 170 0 min 0,0 UV-I 0 W/m -5,7 C -4,9 C 1,6 km/h
23.01.2019 18:48 -4,9 C 94 % 1001,7 hPa 0,0 l/m 0,3 km/h S 170 0 min 0,0 UV-I 0 W/m -5,7 C -4,9 C 3,2 km/h
23.01.2019 18:45 -4,9 C 94 % 1001,7 hPa 0,0 l/m 2,2 km/h S 170 0 min 0,0 UV-I 0 W/m -5,7 C -4,9 C 11,3 km/h
23.01.2019 18:42 -4,9 C 94 % 1001,7 hPa 0,0 l/m 1,9 km/h S 169 0 min 0,0 UV-I 0 W/m -5,7 C -4,9 C 6,4 km/h
23.01.2019 18:39 -4,9 C 94 % 1001,6 hPa 0,0 l/m 0,6 km/h S 169 0 min 0,0 UV-I 0 W/m -5,7 C -4,9 C 3,2 km/h
23.01.2019 18:36 -4,9 C 93 % 1001,6 hPa 0,0 l/m 1,7 km/h S 169 0 min 0,0 UV-I 0 W/m -5,9 C -4,9 C 6,4 km/h
23.01.2019 18:33 -4,9 C 93 % 1001,6 hPa 0,0 l/m 0,3 km/h S 169 0 min 0,0 UV-I 0 W/m -5,9 C -4,9 C 3,2 km/h
23.01.2019 18:30 -4,9 C 93 % 1001,6 hPa 0,0 l/m 2,5 km/h S 169 0 min 0,0 UV-I 0 W/m -5,9 C -4,9 C 6,4 km/h
23.01.2019 18:27 -4,9 C 93 % 1001,6 hPa 0,0 l/m 4,7 km/h S 169 0 min 0,0 UV-I 0 W/m -5,9 C -4,9 C 9,7 km/h
23.01.2019 18:24 -4,9 C 93 % 1001,6 hPa 0,0 l/m 2,9 km/h S 169 0 min 0,0 UV-I 0 W/m -5,9 C -4,9 C 9,7 km/h
23.01.2019 18:21 -4,9 C 93 % 1001,5 hPa 0,0 l/m 3,1 km/h S 169 0 min 0,0 UV-I 0 W/m -5,9 C -4,9 C 6,4 km/h
23.01.2019 18:18 -4,9 C 93 % 1001,5 hPa 0,0 l/m 3,4 km/h S 169 0 min 0,0 UV-I 0 W/m -5,9 C -4,9 C 9,7 km/h
23.01.2019 18:15 -4,9 C 93 % 1001,5 hPa 0,0 l/m 3,0 km/h S 169 0 min 0,0 UV-I 0 W/m -5,9 C -4,9 C 9,7 km/h
23.01.2019 18:12 -4,9 C 93 % 1001,4 hPa 0,0 l/m 3,4 km/h S-SO 168 0 min 0,0 UV-I 0 W/m -5,9 C -4,9 C 11,3 km/h
23.01.2019 18:09 -4,9 C 93 % 1001,5 hPa 0,0 l/m 5,2 km/h S-SO 168 0 min 0,0 UV-I 0 W/m -5,9 C -4,9 C 12,9 km/h
23.01.2019 18:06 -4,9 C 93 % 1001,4 hPa 0,0 l/m 2,0 km/h S-SO 168 0 min 0,0 UV-I 0 W/m -5,9 C -4,9 C 6,4 km/h
23.01.2019 18:03 -4,9 C 93 % 1001,4 hPa 0,0 l/m 3,1 km/h S-SO 168 0 min 0,0 UV-I 0 W/m -5,9 C -4,9 C 8,0 km/h
23.01.2019 18:00 -4,9 C 93 % 1001,4 hPa 0,0 l/m 5,5 km/h S-SO 168 0 min 0,0 UV-I 0 W/m -5,9 C -4,9 C 11,3 km/h
23.01.2019 17:57 -4,9 C 93 % 1001,4 hPa 0,0 l/m 3,9 km/h S-SO 164 0 min 0,0 UV-I 0 W/m -5,9 C -4,9 C 14,5 km/h
23.01.2019 17:54 -5,0 C 93 % 1001,4 hPa 0,0 l/m 7,0 km/h S-SO 155 0 min 0,0 UV-I 0 W/m -6,0 C -5,7 C 12,9 km/h
23.01.2019 17:51 -5,0 C 93 % 1001,4 hPa 0,0 l/m 3,2 km/h SO 146 0 min 0,0 UV-I 0 W/m -6,0 C -5,0 C 8,0 km/h
23.01.2019 17:48 -5,0 C 93 % 1001,4 hPa 0,0 l/m 3,2 km/h SO 144 0 min 0,0 UV-I 0 W/m -6,0 C -5,0 C 8,0 km/h
23.01.2019 17:45 -5,0 C 93 % 1001,3 hPa 0,0 l/m 5,0 km/h SO 144 0 min 0,0 UV-I 0 W/m -6,0 C -5,0 C 9,7 km/h
23.01.2019 17:42 -5,0 C 93 % 1001,3 hPa 0,0 l/m 4,0 km/h SO 144 0 min 0,0 UV-I 0 W/m -6,0 C -5,0 C 11,3 km/h
23.01.2019 17:39 -5,0 C 93 % 1001,3 hPa 0,0 l/m 4,1 km/h SO 141 0 min 0,0 UV-I 0 W/m -6,0 C -5,0 C 9,7 km/h
23.01.2019 17:36 -5,0 C 92 % 1001,3 hPa 0,0 l/m 2,7 km/h SO 141 0 min 0,0 UV-I 0 W/m -6,1 C -5,0 C 9,7 km/h
23.01.2019 17:33 -5,1 C 92 % 1001,2 hPa 0,0 l/m 4,3 km/h SO 141 0 min 0,0 UV-I 0 W/m -6,2 C -5,1 C 9,7 km/h
23.01.2019 17:30 -5,1 C 92 % 1001,2 hPa 0,0 l/m 2,9 km/h SO 141 0 min 0,0 UV-I 0 W/m -6,2 C -5,1 C 11,3 km/h
23.01.2019 17:27 -5,1 C 92 % 1001,2 hPa 0,0 l/m 2,5 km/h SO 141 0 min 0,0 UV-I 0 W/m -6,2 C -5,1 C 9,7 km/h
23.01.2019 17:24 -5,1 C 92 % 1001,2 hPa 0,0 l/m 3,9 km/h SO 141 0 min 0,0 UV-I 0 W/m -6,2 C -5,1 C 9,7 km/h
23.01.2019 17:21 -5,1 C 92 % 1001,2 hPa 0,0 l/m 4,4 km/h SO 141 0 min 0,0 UV-I 0 W/m -6,2 C -5,1 C 8,0 km/h
23.01.2019 17:18 -5,1 C 92 % 1001,2 hPa 0,0 l/m 5,5 km/h SO 141 0 min 0,0 UV-I 0 W/m -6,2 C -5,1 C 9,7 km/h
23.01.2019 17:15 -5,1 C 92 % 1001,2 hPa 0,0 l/m 2,6 km/h SO 141 0 min 0,0 UV-I 0 W/m -6,2 C -5,1 C 8,0 km/h
23.01.2019 17:12 -5,1 C 92 % 1001,2 hPa 0,0 l/m 1,9 km/h SO 141 0 min 0,0 UV-I 0 W/m -6,2 C -5,1 C 6,4 km/h
23.01.2019 17:09 -5,1 C 92 % 1001,2 hPa 0,0 l/m 3,5 km/h SO 141 0 min 0,0 UV-I 0 W/m -6,2 C -5,1 C 8,0 km/h
23.01.2019 17:06 -5,0 C 92 % 1001,2 hPa 0,0 l/m 1,6 km/h SO 141 0 min 0,0 UV-I 0 W/m -6,1 C -5,0 C 6,4 km/h
23.01.2019 17:03 -5,0 C 92 % 1001,2 hPa 0,0 l/m 3,7 km/h SO 141 0 min 0,0 UV-I 0 W/m -6,1 C -5,0 C 8,0 km/h
23.01.2019 17:00 -5,0 C 92 % 1001,2 hPa 0,0 l/m 2,1 km/h SO 141 0 min 0,0 UV-I 0 W/m -6,1 C -5,0 C 11,3 km/h
_ Min-Zeit 02:54 13:45 14:18 - 07:15 - - - - - 02:54 05:24 19:06
Minimum _ -6,7 C 87 % 1000,4 hPa - 0,0 km/h - - - - - -7,6 C -9,5 C 0,0 km/h
_ Max-Zeit 13:24 20:24 22:00 22:00 05:24 - - 07:48 12:15 12:24 13:24 13:24 02:21
Maximum _ -3,8 C 95 % 1008,7 hPa 0,0 l/m 9,2 km/h
S-SO
- - 3 min 0,6 UV-I 313 W/m -5,3 C -3,8 C 17,7 km/h
S
Durchschnitt _ -5,5 C 93 % 1003,7 hPa #0,0 l/m 3,6 km/h S-SO - #36 min. 0,6 UV-I 93 W/m -6,5 C -5,5 C 8,9 km/h
Schulla EDV